This demonstration page uses our WeatherBlox Daily Observations layout. Learn more.

Left ArrowRight Arrow

Hourly Observations for January 11, 2022

Temp ( °F °C ) Dew Point ( °F °C ) Humidity (%) Winds ( mph kmh ) Pressure ( in mb ) Visibility ( mi km ) Precip ( " mm )
12:54 am 00:54 Clear 23 -5 16 -8.9 74 74 SSE 7 11 30.38 1029 10 16 0.00 0.00
1:54 am 01:54 Clear 25 -3.9 17 -8.3 72 72 SSE 6 9 30.34 1028 10 16 0.00 0.00
2:54 am 02:54 Clear 22 -5.6 16 -8.9 78 78 SSE 7 11 30.33 1027 10 16 0.00 0.00
3:54 am 03:54 Clear 22 -5.6 16 -8.9 78 78 SSE 6 9 30.30 1026 10 16 0.00 0.00
4:54 am 04:54 Clear 27 -2.8 18 -7.8 69 69 SSE 5 7 30.28 1026 10 16 0.00 0.00
5:54 am 05:54 Clear 26 -3.3 18 -7.8 71 71 S 5 7 30.27 1025 10 16 0.00 0.00
6:54 am 06:54 Clear 26 -3.3 18 -7.8 71 71 S 5 7 30.26 1025 10 16 0.00 0.00
7:54 am 07:54 Sunny 30 -1.1 20 -6.7 66 66 SW 10 17 30.24 1024 10 16 0.00 0.00
8:54 am 08:54 Sunny 33 0.6 21 -6.1 61 61 SSW 14 22 30.20 1023 10 16 0.00 0.00
9:54 am 09:54 Sunny 39 3.9 23 -5 53 53 WSW 12 19 30.21 1023 10 16 0.00 0.00
10:54 am 10:54 Sunny 44 6.7 23 -5 43 43 WSW 14 22 30.22 1023 10 16 0.00 0.00
11:54 am 11:54 Sunny 48 8.9 24 -4.4 39 39 W 9 15 30.19 1023 10 16 0.00 0.00
12:54 pm 12:54 Sunny 51 10.6 24 -4.4 35 35 WSW 7 11 30.17 1022 10 16 0.00 0.00
1:54 pm 13:54 Sunny 53 11.7 22 -5.6 30 30 W 8 13 30.15 1021 10 16 0.00 0.00
2:54 pm 14:54 Sunny 57 13.9 20 -6.7 24 24 WNW 7 11 30.14 1021 10 16 0.00 0.00
3:54 pm 15:54 Sunny 55 12.8 22 -5.6 28 28 WSW 7 11 30.13 1020 10 16 0.00 0.00
4:54 pm 16:54 Sunny 51 10.6 22 -5.6 32 32 WSW 3 6 30.13 1020 10 16 0.00 0.00
5:54 pm 17:54 Clear 47 8.3 21 -6.1 36 36 W 3 6 30.16 1021 10 16 0.00 0.00
6:54 pm 18:54 Clear 43 6.1 20 -6.7 40 40 Calm 30.18 1022 10 16 0.00 0.00
7:54 pm 19:54 Clear 41 5 20 -6.7 43 43 W 3 6 30.19 1022 10 16 0.00 0.00
8:54 pm 20:54 Clear 32 0 18 -7.8 56 56 S 3 6 30.18 1022 10 16 0.00 0.00
9:54 pm 21:54 Clear 31 -0.6 19 -7.2 61 61 S 3 6 30.18 1022 10 16 0.00 0.00
10:54 pm 22:54 Clear 30 -1.1 19 -7.2 64 64 S 3 6 30.16 1021 10 16 0.00 0.00
11:54 pm 23:54 Clear 29 -1.7 18 -7.8 63 63 Calm 30.17 1022 10 16 0.00 0.00

Powered by AerisWeather